Simultaneous Nadir Overpasses (SNOs) Predictions

Prediction of SNOs between NOAA-19 and NPP Satellite Orbit:

Table of predicted SNOs for the next 14.0 days since TLE Epoch: 11/23/2013
Index Date (NOAA-19) Time (NOAA-19) Lat,Lon (NOAA-19) SZA (NOAA-19 ) Date (NPP) Time (NPP) Lat,Lon (NPP) SZA (NPP ) Distance(km) Time Diff (sec)
1 11/24/2013 05:27:15 80.98, 44.37 104.66 11/24/2013 05:28:29 80.98, 44.51 104.61 2.49 74
2 11/24/2013 06:18:22 -80.98,-148.37 75.34 11/24/2013 06:19:14 -80.98,-148.22 75.38 2.49 52
3 11/24/2013 07:09:17 80.96, 19.66 104.57 11/24/2013 07:09:58 80.96, 19.51 104.57 2.67 41
4 11/24/2013 08:00:23 -80.94,-172.71 75.48 11/24/2013 08:00:42 -80.95,-172.86 75.48 2.63 19
5 11/24/2013 08:51:20 80.94, -5.41 104.52 11/24/2013 08:51:27 80.94, -5.48 104.53 1.24 7
6 11/24/2013 09:42:27 -80.94, 161.85 75.48 11/24/2013 09:42:12 -80.94, 161.79 75.46 1.18 15
7 11/24/2013 10:33:23 80.93, -30.49 104.48 11/24/2013 10:32:56 80.93, -30.48 104.49 0.27 27
8 11/24/2013 11:24:30 -80.93, 136.77 75.53 11/24/2013 11:23:41 -80.93, 136.79 75.50 0.37 49
9 11/24/2013 12:15:26 80.91, -55.57 104.43 11/24/2013 12:14:25 80.91, -55.48 104.45 1.65 61
10 12/06/2013 21:06:38 -80.98, -10.21 73.25 12/06/2013 21:07:43 -80.97, -10.18 73.29 0.65 65
11 12/06/2013 21:57:37 80.98, 157.00 106.77 12/06/2013 21:58:28 80.97, 157.15 106.72 2.63 51
12 12/06/2013 22:48:42 -80.97, -35.68 73.25 12/06/2013 22:49:13 -80.97, -35.55 73.28 2.19 31
13 12/06/2013 23:39:39 80.95, 132.28 106.67 12/06/2013 23:39:57 80.96, 132.14 106.67 2.44 18
14 12/07/2013 00:30:44 -80.95, -60.40 73.35 12/07/2013 00:30:42 -80.96, -60.56 73.32 2.82 2
15 12/07/2013 01:21:42 80.94, 107.19 106.62 12/07/2013 01:21:26 80.94, 107.14 106.63 0.93 16
16 12/07/2013 02:12:47 -80.94, -85.49 73.40 12/07/2013 02:12:11 -80.94, -85.56 73.37 1.25 36
17 12/07/2013 03:03:45 80.93, 82.10 106.57 12/07/2013 03:02:55 80.92, 82.13 106.58 0.60 50




NCC Satellite Simultaneous Nadir Overpasses (SNOs) Prediction Service
